Regional Weather Roundup
Issued by NWS

Home | Current Version | Previous Version | Graphics & Text | Print | Product List | Glossary On
Versions: 1 2 3 4 5 6 7 8 9 10 11 12 13 14 15 16 17 18 19 20 21 22 23 24 25 26 27 28 29 30 31 32 33 34 35 36 37 38 39 40 41 42 43 44 45 46 47 48 49 50
024
ASUS43 KBIS 251131
RWRND
NORTH DAKOTA REGIONAL WEATHER ROUNDUP
NATIONAL WEATHER SERVICE EASTERN NORTH DAKOTA/GRAND FORKS ND
600 AM CDT SUN JUN 25 2017

  NOTE: "FAIR" INDICATES FEW OR NO CLOUDS BELOW 12,000 FEET WITH NO
  SIGNIFICANT WEATHER AND/OR OBSTRUCTIONS TO VISIBILITY.

NDZ001>003-009>011-017-251200-
...NORTHWEST NORTH DAKOTA...

CITY           SKY/WX    TMP DP  RH WIND       PRES   REMARKS
WILLISTON      MOCLDY    52  41  66 CALM      30.26S
MINOT          CLOUDY    50  44  80 CALM      30.24S
MINOT AFB      MOCLDY    48  43  82 CALM      30.24R
$$

NDZ018>021-031>035-040>046-251200-
...SOUTHWEST NORTH DAKOTA...

CITY           SKY/WX    TMP DP  RH WIND       PRES   REMARKS
BISMARCK       MOCLDY    45  39  79 CALM      30.29R
DICKINSON      FAIR      42  33  70 S7        30.26F
GARRISON         N/A     46  42  86 W5        30.26R
HETTINGER      FAIR      42  32  67 SW6       30.32S
$$

NDZ004>008-012>016-024-026-027-054-251200-
...NORTHEAST NORTH DAKOTA...

CITY           SKY/WX    TMP DP  RH WIND       PRES   REMARKS
GRAND FORKS    FAIR      41  40  96 W7        30.20R
GRAND FORKS AF FAIR      42  39  89 NW6       30.21R
DEVILS LAKE    FAIR      44  42  93 NW6       30.25R
$$

NDZ022-023-025-028>030-036>039-047>053-251200-
...SOUTHEAST NORTH DAKOTA...

CITY           SKY/WX    TMP DP  RH WIND       PRES   REMARKS
JAMESTOWN      FAIR      45  43  93 W7        30.24R
FARGO          FAIR      45  42  89 NW8       30.21R
WAHPETON       FAIR      41  37  87 W6        30.23R
$$




USA.gov is the U.S. government's official web portal to all federal, state and local government web resources and services.